{"data":{"norad_id":66869,"epoch":"2026-05-24T19:17:08.347776Z","epoch_age_seconds":85808,"freshness":"FRESH","line1":"1 66869U 25281X   26144.80356884  .00029217  00000+0  10668-2 0  9995","line2":"2 66869  43.0015 273.8400 0001459 276.1026  83.9660 15.27586798 27815","mean_motion":15.27586798,"eccentricity":0.0001459,"inclination_deg":43.0015,"raan_deg":273.84,"arg_perigee_deg":276.1026,"mean_anomaly_deg":83.966,"bstar":0.0010668,"rev_number":2781,"period_min":94.266329211887,"perigee_km":482.02769637604,"apogee_km":484.02978453911,"semimajor_km":6861.1657404576,"source":"CELESTRAK","updated_at":"2026-05-25T13:38:21.373927Z"}}